GW2085 Weather Reports


Display with metric or nautical units.
time (UTC)temp
F
wind
direction
speed
MPH
gust
MPH
rain 1hr
in
rain 24hr
in
rain mn
in
humidity
%
barometer
mb
20260902191605 85 16 2.0 7.0 0.00 0.00 0.00 39 1015.7
20260902190108 84 270 3.0 9.0 0.00 0.00 0.00 39 1015.8
20260902184603 83 165 1.0 7.0 0.00 0.00 0.00 42 1015.9
20260902183113 82 264 3.0 6.0 0.00 0.00 0.00 41 1016.2
20260902181555 81 200 2.0 6.0 0.00 0.00 0.00 41 1016.5
20260902180059 80 294 2.0 6.0 0.00 0.00 0.00 42 1016.7
20260902174603 78 175 3.0 7.0 0.00 0.00 0.00 54 1016.5
20260902173108 77 248 1.0 3.0 0.00 0.00 0.00 56 1016.7
20260902171605 75 153 2.0 5.0 0.00 0.00 0.00 56 1016.6
20260902170057 74 307 1.0 4.0 0.00 0.00 0.00 62 1016.6
20260902164559 73 153 1.0 4.0 0.00 0.00 0.00 62 1016.6
20260902163051 72 282 1.0 3.0 0.00 0.00 0.00 64 1016.6
20260902161600 70 121 1.0 4.0 0.00 0.00 0.00 71 1016.5
20260902160055 69 142 0.0 3.0 0.00 0.00 0.00 75 1016.6
20260902154606 66 177 1.0 3.0 0.00 0.00 0.00 79 1016.6
20260902153100 64 181 0.0 3.0 0.00 0.00 0.00 82 1016.6
20260902151554 62 36 1.0 2.0 0.00 0.00 0.00 82 1016.5
20260902144550 58 25 2.0 4.0 0.00 0.00 0.00 89 1016.6
20260902143056 57 126 0.0 1.0 0.00 0.00 0.00 90 1016.6
20260902141554 56 0 0.0 0.0 0.00 0.00 0.00 90 1016.4
20260902134559 56 0 0.0 0.0 0.00 0.00 0.00 90 1015.9
20260902133101 55 0 0.0 0.0 0.00 0.00 0.00 89 1015.9
20260902131600 55 0 0.0 0.0 0.00 0.00 0.00 88 1015.9
20260902130059 56 0 0.0 0.0 0.00 0.00 0.00 88 1015.6
20260902124601 56 0 0.0 0.0 0.00 0.00 0.00 88 1015.6
20260902123107 56 0 0.0 0.0 0.00 0.00 0.00 88 1015.6
20260902121558 56 0 0.0 0.0 0.00 0.00 0.00 88 1015.6
20260902114620 58 0 0.0 0.0 0.00 0.00 0.00 87 1015.7
20260902113107 59 0 0.0 0.0 0.00 0.00 0.00 87 1015.3
20260902111607 59 0 0.0 0.0 0.00 0.00 0.00 88 1015.4
20260902104609 60 0 0.0 0.0 0.00 0.00 0.00 89 1015.5
20260902103111 60 0 0.0 0.0 0.00 0.00 0.00 90 1015.6
20260902101601 60 0 0.0 0.0 0.00 0.00 0.00 89 1015.7
20260902100122 60 0 0.0 0.0 0.00 0.00 0.00 89 1015.8
20260902094616 59 0 0.0 0.0 0.00 0.00 0.00 89 1015.9
20260902093111 59 0 0.0 0.0 0.00 0.00 0.00 89 1016.0
20260902091554 59 0 0.0 0.0 0.00 0.00 0.00 89 1016.1
20260902090100 59 0 0.0 0.0 0.00 0.00 0.00 89 1016.1
20260902084558 59 0 0.0 0.0 0.00 0.00 0.00 88 1016.2
20260902083053 60 0 0.0 0.0 0.00 0.00 0.00 88 1016.1
20260902081553 60 0 0.0 0.0 0.00 0.00 0.00 88 1016.0
20260902080108 60 0 0.0 0.0 0.00 0.00 0.00 88 1015.9
20260902074600 61 0 0.0 0.0 0.00 0.00 0.00 87 1016.1
20260902073104 61 0 0.0 0.0 0.00 0.00 0.00 87 1016.1
20260902071606 61 0 0.0 0.0 0.00 0.00 0.00 87 1016.1
20260902070057 61 0 0.0 0.0 0.00 0.00 0.00 86 1016.1
20260902064556 62 0 0.0 0.0 0.00 0.00 0.00 86 1016.0
20260902063052 62 0 0.0 0.0 0.00 0.00 0.00 85 1015.9
20260902061633 62 0 0.0 0.0 0.00 0.00 0.00 84 1015.7
20260902060059 62 0 0.0 0.0 0.00 0.00 0.00 84 1015.6
20260902054553 63 0 0.0 0.0 0.00 0.00 0.00 84 1015.7
20260902053056 63 0 0.0 0.0 0.00 0.00 0.00 83 1015.8
20260902051555 64 0 0.0 0.0 0.00 0.00 0.00 82 1015.7
20260902050054 64 0 0.0 0.0 0.00 0.00 0.00 81 1015.8
20260902044601 64 0 0.0 0.0 0.00 0.00 0.00 80 1015.6
20260902043058 65 0 0.0 0.0 0.00 0.00 0.00 79 1015.6
20260902041607 66 0 0.0 1.0 0.00 0.00 0.00 78 1015.3
20260902040103 66 131 0.0 0.0 0.00 0.00 0.00 77 1015.0
20260902034605 67 0 0.0 1.0 0.00 0.00 0.00 76 1014.7
20260902033101 68 0 0.0 1.0 0.00 0.00 0.00 74 1014.5
20260902031614 69 0 0.0 1.0 0.00 0.00 0.00 71 1014.3
20260902024611 71 0 0.0 2.0 0.00 0.00 0.00 67 1014.2
20260902023106 72 111 1.0 5.0 0.00 0.00 0.00 65 1014.0
20260902021605 73 261 3.0 6.0 0.00 0.00 0.00 62 1013.9
20260902020059 75 205 1.0 6.0 0.00 0.00 0.00 56 1014.0
20260902014554 76 158 2.0 4.0 0.00 0.00 0.00 52 1014.0
20260902013100 79 278 3.0 4.0 0.00 0.00 0.00 49 1013.8
20260902011608 79 263 0.0 3.0 0.00 0.00 0.00 47 1013.8
20260902010058 79 281 1.0 5.0 0.00 0.00 0.00 49 1013.8
20260902004555 80 310 1.0 4.0 0.00 0.00 0.00 47 1013.8
20260902003104 79 312 2.0 6.0 0.00 0.00 0.00 47 1013.8
20260902001615 80 289 2.0 6.0 0.00 0.00 0.00 47 1013.8
20260902000055 81 356 3.0 8.0 0.00 0.00 0.00 48 1013.8
20260901234608 82 30 2.0 6.0 0.00 0.00 0.00 46 1013.8
20260901233107 83 9 3.0 9.0 0.00 0.00 0.00 45 1014.0
20260901231610 84 277 3.0 8.0 0.00 0.00 0.00 43 1013.9
20260901230057 84 245 2.0 8.0 0.00 0.00 0.00 43 1014.0
20260901224559 84 281 3.0 8.0 0.00 0.00 0.00 43 1014.0
20260901223054 85 264 4.0 8.0 0.00 0.00 0.00 40 1014.1
20260901221554 86 231 5.0 9.0 0.00 0.00 0.00 35 1014.1
20260901220100 86 212 3.0 11.0 0.00 0.00 0.00 35 1014.2
20260901214605 88 277 2.0 8.0 0.00 0.00 0.00 34 1014.3
20260901213134 88 248 2.0 7.0 0.00 0.00 0.00 36 1014.3
20260901211559 87 239 3.0 9.0 0.00 0.00 0.00 39 1014.4
20260901210056 87 302 4.0 9.0 0.00 0.00 0.00 42 1014.5
20260901204553 87 242 5.0 10.0 0.00 0.00 0.00 42 1014.4
20260901203120 86 311 6.0 12.0 0.00 0.00 0.00 43 1014.5
20260901201602 88 217 2.0 8.0 0.00 0.00 0.00 42 1014.6
20260901200059 88 330 3.0 7.0 0.00 0.00 0.00 42 1014.8
20260901194602 88 0 3.0 9.0 0.00 0.00 0.00 41 1014.9
20260901193059 88 26 1.0 6.0 0.00 0.00 0.00 36 1015.0